CW5255 Weather Reports


Display with metric or nautical units.
time (UTC)temp
F
wind
direction
speed
MPH
gust
MPH
rain 1hr
in
rain 24hr
in
rain mn
in
humidity
%
barometer
mb
20190120143649 31 309 10.0 25.0 0.01 0.83 0.22 77 1001.0
20190120143149 31 281 4.0 29.0 0.01 0.83 0.22 76 1000.7
20190120142649 32 73 13.0 29.0 0.02 0.83 0.22 77 1000.6
20190120142150 32 220 7.0 22.0 0.02 0.83 0.22 77 1001.0
20190120141648 32 259 7.0 22.0 0.01 0.82 0.21 77 1000.9
20190120141148 33 270 13.0 21.0 0.01 0.82 0.21 79 1000.7
20190120140648 33 317 3.0 18.0 0.02 0.82 0.21 79 1000.4
20190120140118 34 360 4.0 27.0 0.02 0.82 0.21 79 1000.0
20190120135648 34 175 9.0 27.0 0.02 0.82 0.21 81 999.8
20190120135147 35 343 1.0 11.0 0.03 0.82 0.21 84 999.7
20190120134647 35 247 5.0 13.0 0.03 0.82 0.21 84 999.5
20190120134117 35 14 4.0 13.0 0.03 0.82 0.21 87 999.2
20190120133617 35 17 10.0 10.0 0.04 0.82 0.21 88 998.8
20190120133147 36 271 2.0 15.0 0.04 0.82 0.21 90 998.6
20190120132617 36 315 3.0 22.0 0.03 0.81 0.20 92 998.5
20190120132117 36 270 6.0 22.0 0.03 0.81 0.20 93 998.3
20190120131646 36 34 2.0 15.0 0.03 0.81 0.20 94 998.0
20190120131116 36 272 6.0 18.0 0.03 0.81 0.20 94 998.0
20190120130616 36 271 9.0 18.0 0.02 0.80 0.19 94 997.7
20190120130146 36 256 8.0 22.0 0.02 0.80 0.19 95 997.5
20190120125646 35 255 12.0 22.0 0.03 0.80 0.19 95 997.0
20190120125146 35 355 4.0 25.0 0.02 0.79 0.18 95 996.9
20190120124645 35 261 7.0 25.0 0.02 0.79 0.18 95 996.8
20190120124145 35 300 9.0 15.0 0.02 0.79 0.18 95 996.5
20190120123645 34 292 3.0 13.0 0.01 0.78 0.17 95 996.1
20190120123145 34 296 2.0 12.0 0.01 0.78 0.17 95 996.1
20190120122645 34 298 0.0 3.0 0.01 0.78 0.17 95 995.9
20190120122145 34 302 2.0 6.0 0.01 0.78 0.17 95 995.9
20190120121645 34 314 3.0 9.0 0.01 0.78 0.17 95 995.7
20190120121145 34 286 2.0 14.0 0.01 0.78 0.17 95 995.5
20190120120644 33 350 2.0 14.0 0.01 0.78 0.17 95 995.4
20190120120144 33 345 6.0 10.0 0.01 0.78 0.17 95 995.4
20190120115644 33 327 1.0 8.0 0.00 0.77 0.16 95 995.4
20190120115144 33 338 3.0 7.0 0.00 0.77 0.16 95 995.3
20190120114643 33 311 6.0 7.0 0.00 0.77 0.16 95 995.0
20190120114143 33 330 1.0 4.0 0.00 0.77 0.16 95 994.7
20190120113643 33 265 2.0 4.0 0.00 0.77 0.16 95 994.6
20190120113143 32 163 2.0 2.0 0.00 0.77 0.16 95 994.3
20190120112643 33 144 0.0 2.0 0.00 0.77 0.16 95 994.5
20190120112143 33 144 1.0 3.0 0.00 0.77 0.16 95 994.5
20190120111643 33 144 1.0 3.0 0.00 0.77 0.16 95 994.2
20190120111143 33 74 0.0 1.0 0.00 0.77 0.16 95 993.8
20190120110643 33 74 1.0 1.0 0.01 0.77 0.16 95 993.5
20190120110142 33 74 0.0 1.0 0.01 0.77 0.16 95 993.5
20190120105642 33 74 0.0 1.0 0.01 0.77 0.16 95 993.5
20190120105142 32 74 1.0 2.0 0.01 0.77 0.16 95 993.3
20190120104642 32 74 0.0 4.0 0.01 0.77 0.16 95 993.3
20190120104142 32 74 1.0 6.0 0.01 0.77 0.16 95 993.5
20190120103641 32 80 4.0 6.0 0.01 0.77 0.16 95 993.7
20190120103141 32 105 3.0 4.0 0.01 0.77 0.16 95 993.9
20190120102641 32 37 1.0 3.0 0.01 0.77 0.16 95 994.5
20190120102141 32 329 0.0 3.0 0.01 0.77 0.16 95 995.0
20190120101641 32 299 0.0 3.0 0.01 0.77 0.16 95 995.2
20190120101141 32 5 1.0 2.0 0.02 0.77 0.16 95 994.7
20190120100641 32 5 1.0 2.0 0.01 0.76 0.15 95 994.7
20190120100140 32 5 1.0 2.0 0.01 0.76 0.15 95 994.4
20190120095641 32 5 0.0 1.0 0.01 0.76 0.15 95 994.7
20190120095140 32 5 0.0 2.0 0.01 0.76 0.15 95 994.8
20190120094641 32 5 1.0 2.0 0.02 0.76 0.15 95 994.9
20190120094140 32 5 0.0 2.0 0.02 0.76 0.15 95 994.8
20190120093640 32 5 0.0 2.0 0.03 0.76 0.15 95 995.1
20190120093140 32 5 1.0 2.0 0.03 0.76 0.15 95 995.2
20190120092640 32 5 0.0 3.0 0.03 0.76 0.15 95 995.3
20190120092140 32 5 0.0 3.0 0.04 0.76 0.15 95 995.2
20190120091639 32 26 1.0 2.0 0.04 0.76 0.15 95 995.3
20190120091139 32 360 0.0 1.0 0.03 0.75 0.14 95 995.5
20190120090639 32 360 0.0 1.0 0.03 0.75 0.14 95 996.0
20190120090139 32 360 0.0 1.0 0.04 0.75 0.14 95 995.8
20190120085638 32 360 1.0 2.0 0.04 0.75 0.14 95 996.1
20190120085138 32 360 1.0 2.0 0.04 0.75 0.14 95 996.4
20190120084639 32 360 0.0 2.0 0.03 0.74 0.13 94 996.7
20190120084138 32 360 0.0 1.0 0.03 0.74 0.13 94 996.1
20190120083639 32 360 0.0 1.0 0.02 0.73 0.12 94 996.3
20190120083138 32 360 0.0 1.0 0.02 0.73 0.12 94 996.7
20190120082637 32 360 0.0 1.0 0.02 0.73 0.12 94 996.7
20190120082138 32 360 0.0 1.0 0.01 0.72 0.11 94 997.1
20190120081637 32 360 0.0 1.0 0.02 0.72 0.11 94 997.5
20190120081137 32 360 1.0 1.0 0.02 0.72 0.11 94 997.8
20190120080637 32 360 0.0 2.0 0.02 0.72 0.11 95 998.0
20190120080137 32 360 1.0 3.0 0.01 0.71 0.10 95 997.9
20190120075637 33 360 1.0 3.0 0.01 0.71 0.10 95 998.1
20190120075137 33 115 0.0 2.0 0.01 0.71 0.10 95 997.9
20190120074636 33 115 0.0 2.0 0.01 0.71 0.10 95 998.4
20190120074137 33 115 0.0 0.0 0.01 0.71 0.10 95 998.6
20190120073636 33 115 0.0 1.0 0.01 0.71 0.10 95 998.7
20190120073136 33 115 0.0 1.0 0.01 0.71 0.10 95 999.0
20190120072637 33 115 1.0 2.0 0.02 0.71 0.10 95 999.0
20190120072135 33 115 0.0 2.0 0.02 0.71 0.10 95 998.8
20190120071636 33 115 0.0 2.0 0.01 0.70 0.09 95 998.9
20190120071136 33 115 1.0 2.0 0.01 0.70 0.09 95 999.0
20190120070635 33 115 1.0 1.0 0.02 0.70 0.09 95 999.1
20190120070136 33 115 0.0 3.0 0.02 0.70 0.09 95 999.4
20190120065636 33 115 0.0 3.0 0.03 0.70 0.09 95 999.6
20190120065135 33 115 3.0 3.0 0.03 0.70 0.09 95 999.8
20190120064635 33 117 1.0 3.0 0.03 0.70 0.09 95 1000.2
20190120064134 33 117 1.0 3.0 0.04 0.70 0.09 95 1000.4
20190120063635 33 98 3.0 4.0 0.04 0.70 0.09 95 1000.1
20190120063134 33 97 2.0 4.0 0.05 0.70 0.09 94 1000.3
20190120062634 33 87 2.0 6.0 0.04 0.69 0.08 95 1000.7
20190120062134 33 82 3.0 6.0 0.05 0.69 0.08 95 1000.8
20190120061634 33 94 1.0 4.0 0.05 0.69 0.08 94 1001.1
20190120061134 33 113 2.0 4.0 0.06 0.69 0.08 95 1001.3
20190120060634 33 140 1.0 3.0 0.06 0.68 0.07 94 1001.6
20190120060133 33 121 1.0 3.0 0.07 0.68 0.07 94 1001.8
20190120055633 33 107 3.0 5.0 0.06 0.67 0.06 94 1002.2
20190120055133 33 96 2.0 5.0 0.06 0.67 0.06 94 1002.3
20190120054633 33 115 2.0 6.0 0.07 0.67 0.06 94 1002.3
20190120054133 33 67 1.0 6.0 0.06 0.66 0.05 94 1002.5
20190120053633 33 92 4.0 6.0 0.06 0.66 0.05 94 1002.7
20190120053133 33 98 1.0 6.0 0.06 0.65 0.04 94 1002.9
20190120052632 33 80 5.0 6.0 0.06 0.65 0.04 94 1002.9
20190120052132 33 93 4.0 6.0 0.05 0.64 0.03 94 1003.3
20190120051632 33 130 0.0 3.0 0.06 0.64 0.03 94 1003.5
20190120051132 33 103 1.0 3.0 0.06 0.63 0.02 94 1003.8
20190120050632 33 116 1.0 3.0 0.05 0.62 0.01 94 1004.0
20190120050132 33 116 0.0 3.0 0.05 0.61 0.00 94 1004.1
20190120045631 33 115 3.0 3.0 0.05 0.61 0.61 94 1004.4
20190120045131 33 110 0.0 3.0 0.06 0.61 0.61 94 1004.4
20190120044631 33 107 3.0 3.0 0.06 0.60 0.60 94 1004.5
20190120044131 33 107 1.0 3.0 0.07 0.60 0.60 94 1004.7
20190120043631 33 107 0.0 3.0 0.07 0.60 0.60 94 1004.9
20190120043131 33 105 1.0 4.0 0.06 0.59 0.59 94 1005.0
20190120042631 33 92 3.0 5.0 0.07 0.59 0.59 94 1004.9
20190120042131 33 86 3.0 5.0 0.08 0.59 0.59 94 1005.0
20190120041630 33 71 4.0 6.0 0.07 0.58 0.58 94 1005.4
20190120041130 33 110 0.0 6.0 0.07 0.57 0.57 94 1005.4
20190120040631 33 99 4.0 6.0 0.07 0.57 0.57 94 1005.4
20190120040130 33 100 2.0 6.0 0.07 0.56 0.56 94 1005.6
20190120035631 33 114 4.0 7.0 0.07 0.56 0.56 94 1005.6
20190120035130 33 93 6.0 7.0 0.07 0.55 0.55 94 1005.7
20190120034629 33 92 2.0 6.0 0.07 0.54 0.54 94 1005.8
20190120034129 33 72 3.0 6.0 0.07 0.53 0.53 94 1005.8
20190120033630 33 102 3.0 6.0 0.08 0.53 0.53 94 1006.0
20190120033129 33 76 2.0 6.0 0.08 0.53 0.53 94 1006.1
20190120032623 33 96 2.0 6.0 0.08 0.52 0.52 94 1006.2
20190120032153 32 82 5.0 7.0 0.08 0.51 0.51 94 1006.3
20190120031652 32 80 3.0 7.0 0.09 0.51 0.51 94 1006.4
20190120031150 32 87 4.0 7.0 0.09 0.50 0.50 94 1006.3
20190120030621 32 73 5.0 5.0 0.10 0.50 0.50 94 1006.6
20190120030150 32 88 3.0 6.0 0.10 0.49 0.49 94 1006.9
20190120025651 32 95 2.0 6.0 0.10 0.49 0.49 94 1006.8
20190120025149 33 101 6.0 6.0 0.11 0.48 0.48 94 1006.8
20190120024650 33 114 3.0 7.0 0.10 0.47 0.47 94 1007.2
20190120024149 33 115 2.0 7.0 0.10 0.46 0.46 94 1007.2
20190120023650 33 82 2.0 6.0 0.10 0.45 0.45 94 1007.5
20190120023149 33 87 4.0 7.0 0.11 0.45 0.45 94 1007.4
20190120022649 33 115 3.0 7.0 0.11 0.44 0.44 94 1007.5
20190120022150 33 117 1.0 6.0 0.11 0.43 0.43 94 1007.6
20190120021618 33 104 2.0 4.0 0.11 0.42 0.42 94 1007.8
20190120021148 33 131 3.0 4.0 0.11 0.41 0.41 94 1007.8
20190120020648 33 116 2.0 4.0 0.11 0.40 0.40 94 1007.9
20190120020148 33 104 1.0 4.0 0.11 0.39 0.39 94 1008.0
20190120015618 33 99 1.0 6.0 0.13 0.39 0.39 94 1008.0
20190120015148 33 107 1.0 6.0 0.12 0.37 0.37 94 1008.1
20190120014648 33 125 3.0 4.0 0.14 0.37 0.37 94 1008.1
20190120014147 33 96 1.0 4.0 0.14 0.36 0.36 94 1008.5
20190120013648 33 112 2.0 7.0 0.14 0.35 0.35 94 1008.5
20190120013147 33 105 4.0 7.0 0.15 0.34 0.34 94 1008.7
20190120012647 33 103 3.0 8.0 0.14 0.33 0.33 94 1008.7
20190120012150 33 123 4.0 8.0 0.14 0.32 0.32 94 1008.7
20190120011646 33 101 3.0 4.0 0.14 0.31 0.31 94 1009.1
20190120011146 33 105 1.0 4.0 0.15 0.30 0.30 94 1009.2
20190120010646 33 128 2.0 4.0 0.15 0.29 0.29 94 1009.5
20190120010146 33 121 2.0 3.0 0.15 0.28 0.28 94 1009.6
20190120005646 33 141 1.0 3.0 0.14 0.26 0.26 93 1010.0
20190120005146 33 141 1.0 3.0 0.15 0.25 0.25 94 1010.0
20190120004647 33 141 1.0 2.0 0.15 0.23 0.23 93 1010.2
20190120004146 33 141 0.0 2.0 0.15 0.22 0.22 93 1010.2
20190120003645 33 141 1.0 3.0 0.15 0.21 0.21 93 1010.3
20190120003145 33 141 1.0 5.0 0.14 0.19 0.19 93 1010.5
20190120002645 33 171 2.0 5.0 0.16 0.19 0.19 93 1010.7
20190120002145 33 218 5.0 5.0 0.15 0.18 0.18 93 1011.2
20190120001646 33 117 2.0 6.0 0.14 0.17 0.17 93 1010.2
20190120001145 33 99 2.0 6.0 0.12 0.15 0.15 93 1010.3
20190120000645 33 92 4.0 4.0 0.11 0.14 0.14 93 1010.6
20190120000144 33 111 1.0 4.0 0.10 0.13 0.13 93 1010.8
20190119235644 33 120 3.0 6.0 0.10 0.12 0.12 93 1010.7
20190119235144 33 133 3.0 6.0 0.08 0.10 0.10 93 1010.8
20190119234644 33 128 2.0 5.0 0.06 0.08 0.08 93 1010.8
20190119234144 33 145 1.0 5.0 0.05 0.07 0.07 93 1010.8
20190119233644 33 105 3.0 5.0 0.04 0.06 0.06 93 1010.7
20190119233143 33 93 3.0 7.0 0.04 0.05 0.05 93 1010.7
20190119232643 33 98 3.0 7.0 0.02 0.03 0.03 93 1010.8
20190119232143 33 109 3.0 5.0 0.02 0.03 0.03 93 1011.2
20190119231643 33 133 2.0 5.0 0.02 0.03 0.03 93 1011.7
20190119231143 33 126 3.0 7.0 0.03 0.03 0.03 93 1011.8
20190119230643 33 130 1.0 7.0 0.03 0.03 0.03 93 1011.7
20190119230144 33 130 3.0 8.0 0.03 0.03 0.03 93 1011.8
20190119225643 33 147 2.0 8.0 0.02 0.02 0.02 93 1012.1
20190119225144 33 137 4.0 7.0 0.02 0.02 0.02 93 1012.4
20190119224642 33 158 3.0 7.0 0.02 0.02 0.02 93 1012.4
20190119224142 33 123 1.0 7.0 0.02 0.02 0.02 93 1012.4
20190119223642 33 145 2.0 11.0 0.02 0.02 0.02 93 1012.6
20190119223142 33 118 3.0 11.0 0.01 0.01 0.01 93 1012.5
20190119222642 33 171 11.0 11.0 0.01 0.01 0.01 93 1012.7
20190119222141 33 159 5.0 11.0 0.01 0.01 0.01 93 1012.6
20190119221641 33 161 1.0 9.0 0.01 0.01 0.01 93 1012.7
20190119221146 33 152 7.0 8.0 0.00 0.00 0.00 93 1012.5
20190119220641 33 141 2.0 10.0 0.00 0.00 0.00 93 1012.5
20190119220141 33 140 3.0 10.0 0.00 0.00 0.00 92 1012.5
20190119215641 33 141 3.0 10.0 0.00 0.00 0.00 92 1012.7
20190119215141 33 186 5.0 10.0 0.00 0.00 0.00 92 1013.0
20190119214641 33 150 3.0 9.0 0.00 0.00 0.00 92 1012.7
20190119214140 33 114 2.0 11.0 0.00 0.00 0.00 92 1012.8
20190119213640 34 126 3.0 11.0 0.00 0.00 0.00 92 1013.4
20190119213140 34 173 2.0 10.0 0.00 0.00 0.00 92 1013.8
20190119212640 34 154 8.0 12.0 0.00 0.00 0.00 92 1013.9
20190119212140 34 118 8.0 12.0 0.00 0.00 0.00 92 1014.1
20190119211640 34 222 12.0 12.0 0.00 0.00 0.00 92 1014.2
20190119211139 34 207 4.0 9.0 0.00 0.00 0.00 92 1014.1
20190119210639 34 114 3.0 12.0 0.00 0.00 0.00 91 1014.1
20190119210139 34 152 7.0 12.0 0.00 0.00 0.00 91 1013.9
20190119205639 34 182 2.0 10.0 0.00 0.00 0.00 91 1014.3
20190119205139 34 196 5.0 10.0 0.00 0.00 0.00 91 1014.3
20190119204639 34 193 5.0 10.0 0.00 0.00 0.00 91 1014.4
20190119204138 34 148 6.0 12.0 0.00 0.01 0.00 91 1014.2
20190119203638 34 120 5.0 12.0 0.00 0.01 0.00 91 1014.1
20190119203138 34 91 3.0 16.0 0.00 0.01 0.00 90 1014.1
20190119202638 34 103 6.0 16.0 0.00 0.01 0.00 90 1014.7
20190119202139 34 123 3.0 11.0 0.00 0.01 0.00 90 1015.0
20190119201638 34 145 6.0 11.0 0.00 0.01 0.00 90 1015.0
20190119201138 34 150 5.0 11.0 0.00 0.01 0.00 90 1015.1
20190119200637 34 128 4.0 10.0 0.00 0.01 0.00 89 1015.5
20190119200137 34 140 4.0 8.0 0.00 0.01 0.00 89 1015.5
20190119195637 34 186 6.0 8.0 0.00 0.02 0.00 89 1015.4
20190119195136 34 142 4.0 8.0 0.00 0.02 0.00 89 1015.2
20190119194637 34 146 4.0 10.0 0.00 0.02 0.00 89 1015.2
20190119194137 34 101 8.0 10.0 0.00 0.02 0.00 89 1015.6
20190119193636 34 119 4.0 12.0 0.00 0.02 0.00 89 1015.8
20190119193136 34 139 9.0 12.0 0.00 0.02 0.00 89 1016.0
20190119192636 34 148 4.0 10.0 0.00 0.03 0.00 89 1016.3
20190119192136 34 155 4.0 12.0 0.00 0.03 0.00 89 1016.4
20190119191637 34 136 5.0 12.0 0.00 0.03 0.00 89 1016.0
20190119191136 34 169 6.0 10.0 0.00 0.03 0.00 89 1016.0
20190119190636 34 122 5.0 8.0 0.00 0.03 0.00 89 1016.1
20190119190136 34 152 2.0 8.0 0.00 0.04 0.00 89 1016.6
20190119185635 34 140 4.0 9.0 0.00 0.04 0.00 89 1017.1
20190119185135 34 129 4.0 10.0 0.00 0.04 0.00 89 1017.0
20190119184635 34 173 2.0 10.0 0.00 0.04 0.00 89 1017.0
20190119184135 34 145 0.0 11.0 0.00 0.04 0.00 89 1017.1
20190119183635 34 133 3.0 11.0 0.00 0.05 0.00 89 1016.6
20190119183135 34 136 7.0 12.0 0.00 0.05 0.00 89 1016.9
20190119182634 34 157 7.0 12.0 0.00 0.05 0.00 89 1017.6
20190119182134 34 123 7.0 11.0 0.00 0.05 0.00 89 1017.4
20190119181634 34 114 4.0 10.0 0.00 0.06 0.00 89 1017.7
20190119181134 34 151 4.0 10.0 0.00 0.06 0.00 89 1017.8
20190119180634 34 130 1.0 11.0 0.00 0.06 0.00 89 1017.9
20190119180133 34 141 2.0 11.0 0.00 0.07 0.00 90 1017.7
20190119175633 34 216 5.0 12.0 0.00 0.07 0.00 90 1017.8
20190119175133 35 128 4.0 12.0 0.00 0.08 0.00 90 1017.7
20190119174633 35 129 4.0 8.0 0.00 0.08 0.00 90 1018.1
20190119174133 35 155 3.0 8.0 0.00 0.08 0.00 90 1018.2
20190119173633 35 185 4.0 8.0 0.00 0.09 0.00 91 1018.2
20190119173133 35 151 3.0 9.0 0.00 0.09 0.00 91 1018.5
20190119172632 35 142 2.0 12.0 0.00 0.10 0.00 91 1018.5
20190119172132 35 142 3.0 12.0 0.00 0.10 0.00 91 1018.8
20190119171632 35 190 5.0 16.0 0.00 0.10 0.00 91 1018.8
20190119171132 35 173 2.0 16.0 0.00 0.11 0.00 91 1018.9
20190119170632 35 132 5.0 11.0 0.00 0.11 0.00 91 1019.0
20190119170132 35 137 5.0 9.0 0.00 0.11 0.00 91 1019.1
20190119165631 35 194 5.0 9.0 0.00 0.12 0.00 90 1019.3
20190119165131 35 155 8.0 9.0 0.00 0.12 0.00 90 1019.4
20190119164631 35 162 2.0 10.0 0.00 0.13 0.00 90 1019.6
20190119164131 35 155 4.0 11.0 0.00 0.13 0.00 90 1019.7
20190119163631 35 155 10.0 11.0 0.00 0.13 0.00 89 1019.6
20190119163131 35 126 7.0 10.0 0.00 0.14 0.00 89 1020.0
20190119162631 35 154 4.0 11.0 0.00 0.14 0.00 89 1020.1
20190119162131 35 198 3.0 12.0 0.00 0.15 0.00 89 1020.1
20190119161630 35 148 4.0 12.0 0.00 0.15 0.00 88 1020.2
20190119161130 36 167 10.0 12.0 0.00 0.15 0.00 88 1020.2
20190119160630 36 174 12.0 12.0 0.00 0.16 0.00 87 1020.4
20190119160130 36 141 5.0 12.0 0.00 0.16 0.00 87 1020.7
20190119155630 36 115 8.0 11.0 0.00 0.17 0.00 86 1020.8
20190119155129 36 142 4.0 14.0 0.00 0.17 0.00 85 1021.0
20190119154629 36 148 10.0 14.0 0.00 0.17 0.00 85 1021.2
20190119154129 36 159 7.0 11.0 0.00 0.17 0.00 85 1021.1
20190119153630 36 131 5.0 11.0 0.00 0.18 0.00 84 1021.3
20190119153129 36 148 8.0 11.0 0.00 0.18 0.00 84 1021.3
20190119152630 36 150 2.0 11.0 0.00 0.18 0.00 84 1021.3
20190119152129 35 146 6.0 11.0 0.00 0.18 0.00 84 1021.1
20190119151629 35 125 2.0 7.0 0.00 0.18 0.00 84 1021.2
20190119151128 35 170 2.0 9.0 0.00 0.19 0.00 84 1021.3
20190119150629 35 90 4.0 9.0 0.00 0.19 0.00 84 1021.2
20190119150128 35 150 5.0 9.0 0.00 0.19 0.00 84 1021.2
20190119145628 35 171 1.0 8.0 0.00 0.19 0.00 84 1021.4
20190119145128 35 142 3.0 9.0 0.00 0.19 0.00 84 1021.3
20190119144628 35 142 4.0 9.0 0.00 0.19 0.00 84 1021.3
20190119144127 35 159 6.0 11.0 0.00 0.19 0.00 84 1021.5